loading
|

STARLINK-32149, 60292

Orbit data source: Space-Track

STARLINK-32149, 60292 is a payload satellite owned by SpaceX/Seattle (US) in LEO that was launched on Sun, 28 Jul 2024 UTC via an FALCON 9 launch vehicle from the Air Force Eastern Test Range (AFETR). Payloads include a variety of satellites, spacecraft, and rockets equipped with specific instruments for various scientific and technological missions. These include communications satellites like Starlink; space stations such as the ISS; scientific satellites like the Hubble; Earth observation satellites from companies like Planet Labs, Umbra, and HawkEye 360; GPS; miniature CubeSats for education and research; and military/defense satellites.

Loading next visibility...
Loading greatness...
STARLINK-32149 details
Identifier
60292, 2024-132Q
Orbit
LEO
Last TLE update6 hours ago
Origin
Flag of USSpaceX/Seattle (US)
ManufacturerSpaceX/Seattle
Mission statusOperational
MissionUnknown
Bus & MotorSTARLINK V2M, Unknown motor
Mass750 kg wet, ~700 kg dry
Launch date (UTC)
2024-07-28 (2 months ago)
Launch vehicle
FALCON 9
Launch site
Air Force Eastern Test Range (AFETR)
Object type
Payload
Rocket body
Debris
Radar Cross SectionLarge (>1 m²)

Expand to show TLE details & history

TLE from 6 hours ago
0 STARLINK-32149
1 60292U 24132Q   24261.63981258  .00001858  00000-0  56422-4 0  9993
2 60292  53.1611  32.2624 0001642  79.0507 281.0682 15.39626871  9170
Epoch: 2024-09-17T15:21Z
Definitive object data (Epoch: 2024-09-17T15:21:19.806Z)
Latitude-0.00009°
Longitude164.87823°
Altitude447.9 km
Speed7.645 km/s
True Right ascension02h 09m 02s
True Declination0° 00' 00"
Sunlit
Object was in full shadow at TLE epoch
Predictive object data (real-time)
Latitude-38.20449°
Longitude127.79848°
Altitude460.36 km
Speed7.636 km/s
Apparent Right ascension00h 52m 09s
Apparent Declination-40° 22' 58"
Sunlit
Object is in full shadow
Predictive observer data (real-time)
Local Sidereal Time14:10:52
Azimuth98.141° ESE
Elevation-74.981°
Doppler factor1
Orbital elements
Apogee448.59 km
Perigee446.348 km
Semi-major axis6,825.606 km
Eccentricity0.0001642
Inclination53.1611°
RAAN32.2624°
Arg. of periapsis79.0507°
True anomaly281.04973°
Mean anomaly281.0682°
Eccentric anomaly281.05897°
Mean motion3.84885 °/min
BSTAR0.000056422
Period93.53 mins
No data available

STARLINK-32149 Visibility forecast

Observer location: 39.9160978°, -105.1181434

STARLINK-32149 is not visible in the next 10 days
Span
Click to sort rows by Start time (UTC) header in descending order
Start Az.
Max El. time (UTC)
Max El. Az.
Max El.
End time (UTC)
End Az.